IRIDIUM 33 DEB, 46965

Orbit data source: Space-Track

IRIDIUM 33 DEB, 46965 is space debris in LEO originally from a launch on Sun, 14 Sep 1997 UTC launched from the Tyuratam Missile And Space Complex (TTMTR). The debris from Iridium 33, an American commercial communications satellite, has been tracked extensively since its accidental collision with the defunct Russian satellite Cosmos 2251 in 2009. This event, occurring at high speed in low Earth orbit (LEO), generated thousands of pieces of space debris, significantly increasing the risk of further collisions. The Iridium 33 debris cloud has impacted space traffic management and orbital debris mitigation strategies, making it a subject of ongoing study in space situational awareness.

Loading next visibility...
Identifier
46965, 1997-051ABX
Orbit
LEO
Country
Flag of USUS
Related business
Manufacturer
Unknown
Mission
Spacecraft
Bus & Motor
Unknown
Mass
Unknown
Launch date (UTC)
1997-09-14 (28 years ago)
Launch vehicle
Unknown
Launch site
Tyuratam Missile And Space Complex (TTMTR)
Object type
Payload
Rocket body
Debris
Shape & HBR
Unknown shape, 0.1 m
Radar Cross Section
Small (<0.1 m²)

Expand to show TLE details & history
Last TLE update: 2 days ago

TLE from 2 days ago
0 IRIDIUM 33 DEB
1 46965U 97051ABX 25353.74714213  .00002758  00000-0  56520-3 0  9992
2 46965  86.3352 337.5891 0017418 308.2563 176.3238 14.60345703623704
Epoch: 2025-12-19T17:55Z
TLE epoch observation values (Epoch: 2025-12-19T17:55:53.080Z)
Latitude
55.33701°
Longitude
154.74785°
Altitude
713.632 km
Speed
7.498 km/s
True Right ascension
10h 09m 12s
True Declination
55° 10' 30"
Sunlit
Object was in full shadow at epoch
Visualization orbit readout
Latitude
Unknown
Longitude
Unknown
Altitude
Unknown
Speed
Unknown
Apparent Right ascension
Unknown
Apparent Declination
Unknown
Sunlit
N/A
Visualization observer readout
Local Sidereal Time
13:07:13
Azimuth
Unknown
Elevation
Unknown
Doppler factor
Unknown
Orbital elements
Apogee altitude
701.296 km
Perigee altitude
676.677 km
Semi-major axis
7,067.124 km
Eccentricity
0.00174
Inclination
86.3352°
RAAN
337.5891°
Arg. of periapsis
308.2563°
True anomaly
176.33657°
Mean anomaly
176.3238°
Eccentric anomaly
176.33019°
Mean motion
3.65325 °/min
Orbital period
98.54 mins
BSTAR
0.0005652
Loading maneuver chart data...
Computing Atmospheric mass density...

Documentation

Showing up to 5 results
|